This is the latest recevied weather packets stored in our database for station/object KF5WCW-1. If no packets are shown the sender has not sent any weather packets the latest 10 day(s).
| Time | Temp. | Humidity | Pressure | Rain* | Wind** | Luminosity | Snow |
|---|---|---|---|---|---|---|---|
| 1777868173 | 9.44° C | 45% | 0 hPa | 0 mm | - | - | - |
| 1777867873 | 9.44° C | 43% | 0 hPa | 0 mm | - | - | - |
| 1777867573 | 10° C | 42% | 0 hPa | 0 mm | - | - | - |
| 1777867273 | 10° C | 41% | 0 hPa | 0 mm | - | - | - |
| 1777866973 | 10° C | 42% | 0 hPa | 0 mm | - | - | - |
| 1777866673 | 10.56° C | 42% | 0 hPa | 0 mm | - | - | - |
| 1777866373 | 10° C | 41% | 0 hPa | 0 mm | - | - | - |
| 1777866073 | 10° C | 42% | 0 hPa | 0 mm | - | - | - |
| 1777865773 | 10° C | 45% | 0 hPa | 0 mm | - | - | - |
| 1777865473 | 10° C | 44% | 0 hPa | 0 mm | - | - | - |
| 1777865173 | 10.56° C | 42% | 0 hPa | 0 mm | - | - | - |
| 1777864873 | 10.56° C | 41% | 0 hPa | 0 mm | - | - | - |
| 1777864573 | 10.56° C | 41% | 0 hPa | 0 mm | - | - | - |
| 1777864273 | 10.56° C | 40% | 0 hPa | 0 mm | - | - | - |
| 1777863973 | 10.56° C | 41% | 0 hPa | 0 mm | - | - | - |
| 1777863673 | 10.56° C | 41% | 0 hPa | 0 mm | - | - | - |
| 1777863373 | 11.11° C | 43% | 0 hPa | 0 mm | - | - | - |
| 1777863073 | 11.11° C | 41% | 0 hPa | 0 mm | - | - | - |
| 1777862773 | 11.67° C | 42% | 0 hPa | 0 mm | - | - | - |
| 1777862473 | 11.67° C | 39% | 0 hPa | 0 mm | - | - | - |
| 1777862173 | 12.22° C | 40% | 0 hPa | 0 mm | - | - | - |
| 1777861873 | 12.22° C | 40% | 0 hPa | 0 mm | - | - | - |
| 1777861573 | 12.22° C | 38% | 0 hPa | 0 mm | - | - | - |
| 1777861273 | 12.22° C | 37% | 0 hPa | 0 mm | - | - | - |
| 1777860973 | 12.78° C | 37% | 0 hPa | 0 mm | - | - | - |
* Rain latest hour (hover to see other rain measurements)
** Current wind speed in m/s (hover to see current wind gust speed)